Back to Top

Language: 

My Weather Underground Personal Weather Station Historical Data with Graphs...

Delerius Weather Station Historical Data
Daily Summary for August 1, 2017 Units:  English    Metric   Both
« Previous Day
Next Day »
Daily Weekly Monthly Yearly Custom
  High: Low: Average:
Temperature: 65.7 °F 52.5 °F 59.5 °F
Dew Point: 59.6 °F 49.4 °F 53.4 °F
Humidity: 90 % 67 % 81 %
Wind Speed: 13.0 mph 0.0 mph 5.4 mph
Wind Gust: 24.0 mph - -
Wind:- - SW
Pressure: 29.90 in 29.83 in -
Precipitation: 0.04 in    
Historical Graphs
 
 
Tabular Data for August 1, 2017
Time Temperature Dew Point Pressure Wind Wind Speed Wind Gust Humidity Rainfall Rate (Hourly) solar Conditions
00:01 58.6 °F 51.1 °F 29.84 in SW 5.0 mph 8.0 mph 76 % 0.00 in 0 W/m2
00:06 58.5 °F 50.9 °F 29.85 in SW 5.0 mph 8.0 mph 76 % 0.00 in 0 W/m2
00:11 58.3 °F 50.7 °F 29.85 in WSW 5.0 mph 9.0 mph 76 % 0.00 in 0 W/m2
00:17 58.1 °F 50.6 °F 29.85 in WSW 5.0 mph 9.0 mph 76 % 0.00 in 0 W/m2
00:22 57.9 °F 50.4 °F 29.85 in WSW 4.0 mph 7.0 mph 76 % 0.00 in 0 W/m2
00:27 57.9 °F 50.8 °F 29.84 in WSW 4.0 mph 9.0 mph 77 % 0.00 in 0 W/m2
00:32 57.9 °F 50.8 °F 29.84 in WSW 3.0 mph 9.0 mph 77 % 0.00 in 0 W/m2
00:37 57.7 °F 50.6 °F 29.84 in West 2.0 mph 6.0 mph 77 % 0.00 in 0 W/m2
00:42 57.6 °F 50.8 °F 29.84 in West 1.0 mph 4.0 mph 78 % 0.00 in 0 W/m2
00:47 57.4 °F 50.6 °F 29.85 in West 1.0 mph 4.0 mph 78 % 0.00 in 0 W/m2
00:52 57.2 °F 50.4 °F 29.85 in Calm   4.0 mph 78 % 0.00 in 0 W/m2
00:57 57.0 °F 50.6 °F 29.84 in Calm   2.0 mph 79 % 0.00 in 0 W/m2
01:02 56.8 °F 50.4 °F 29.84 in Calm     79 % 0.00 in 0 W/m2
01:03 56.7 °F 50.6 °F 29.84 in Calm     80 % 0.00 in 0 W/m2
01:07 56.5 °F 50.4 °F 29.84 in Calm     80 % 0.00 in 0 W/m2
01:12 56.1 °F 50.4 °F 29.84 in Calm   2.0 mph 81 % 0.00 in 0 W/m2
01:17 55.9 °F 50.5 °F 29.84 in SW 1.0 mph 6.0 mph 82 % 0.00 in 0 W/m2
01:22 55.8 °F 50.7 °F 29.84 in SSW 2.0 mph 6.0 mph 83 % 0.00 in 0 W/m2
01:27 55.8 °F 50.7 °F 29.84 in South 2.0 mph 6.0 mph 83 % 0.00 in 0 W/m2
01:32 55.8 °F 50.7 °F 29.84 in South 2.0 mph 7.0 mph 83 % 0.00 in 0 W/m2
01:37 55.8 °F 51.0 °F 29.84 in South 3.0 mph 7.0 mph 84 % 0.00 in 0 W/m2
01:42 55.8 °F 51.3 °F 29.84 in SSW 4.0 mph 8.0 mph 85 % 0.00 in 0 W/m2
01:47 55.9 °F 51.5 °F 29.84 in SSW 4.0 mph 8.0 mph 85 % 0.00 in 0 W/m2
01:52 55.8 °F 51.3 °F 29.84 in SSW 3.0 mph 7.0 mph 85 % 0.00 in 0 W/m2
01:57 55.8 °F 51.3 °F 29.84 in SSW 3.0 mph 6.0 mph 85 % 0.00 in 0 W/m2
02:02 55.8 °F 51.3 °F 29.84 in SSW 4.0 mph 8.0 mph 85 % 0.00 in 0 W/m2
02:07 55.6 °F 51.1 °F 29.84 in SSW 5.0 mph 8.0 mph 85 % 0.00 in 0 W/m2
02:12 55.6 °F 51.1 °F 29.84 in SW 5.0 mph 8.0 mph 85 % 0.00 in 0 W/m2
02:17 55.4 °F 51.0 °F 29.84 in SW 5.0 mph 8.0 mph 85 % 0.00 in 0 W/m2
02:22 55.2 °F 51.1 °F 29.84 in SW 5.0 mph 8.0 mph 86 % 0.00 in 0 W/m2
02:27 55.0 °F 50.9 °F 29.84 in SW 5.0 mph 8.0 mph 86 % 0.00 in 0 W/m2
02:32 55.0 °F 50.9 °F 29.84 in SW 5.0 mph 7.0 mph 86 % 0.00 in 0 W/m2
02:37 54.9 °F 50.8 °F 29.84 in SW 4.0 mph 7.0 mph 86 % 0.00 in 0 W/m2
02:42 54.9 °F 50.8 °F 29.84 in SW 3.0 mph 6.0 mph 86 % 0.00 in 0 W/m2
02:47 54.7 °F 50.6 °F 29.84 in WSW 2.0 mph 6.0 mph 86 % 0.00 in 0 W/m2
02:52 54.5 °F 50.4 °F 29.84 in SW 2.0 mph 5.0 mph 86 % 0.00 in 0 W/m2
02:57 54.3 °F 50.5 °F 29.84 in WSW 1.0 mph 4.0 mph 87 % 0.00 in 0 W/m2
03:02 54.1 °F 50.4 °F 29.84 in Calm   3.0 mph 87 % 0.00 in 0 W/m2
03:07 54.0 °F 50.5 °F 29.84 in SW 1.0 mph 5.0 mph 88 % 0.00 in 0 W/m2
03:12 53.8 °F 50.3 °F 29.84 in SSW 2.0 mph 7.0 mph 88 % 0.00 in 0 W/m2
03:17 54.0 °F 50.8 °F 29.84 in SSW 3.0 mph 7.0 mph 89 % 0.00 in 0 W/m2
03:22 53.8 °F 50.6 °F 29.84 in SSW 3.0 mph 7.0 mph 89 % 0.00 in 0 W/m2
03:27 53.8 °F 50.6 °F 29.84 in SSW 2.0 mph 8.0 mph 89 % 0.00 in 0 W/m2
03:32 53.8 °F 50.6 °F 29.84 in SSW 2.0 mph 8.0 mph 89 % 0.00 in 0 W/m2
03:37 53.8 °F 50.3 °F 29.84 in SSW 1.0 mph 5.0 mph 88 % 0.00 in 0 W/m2
03:42 53.4 °F 50.0 °F 29.84 in Calm   4.0 mph 88 % 0.00 in 0 W/m2
03:47 53.2 °F 49.8 °F 29.84 in SW 1.0 mph 4.0 mph 88 % 0.00 in 0 W/m2
03:52 53.2 °F 50.1 °F 29.84 in SW 1.0 mph 5.0 mph 89 % 0.00 in 0 W/m2
03:57 53.2 °F 50.1 °F 29.83 in SW 1.0 mph 5.0 mph 89 % 0.00 in 0 W/m2
04:02 53.1 °F 49.6 °F 29.83 in Calm   2.0 mph 88 % 0.00 in 0 W/m2
04:07 52.9 °F 49.4 °F 29.83 in Calm   2.0 mph 88 % 0.00 in 0 W/m2
04:08 52.9 °F 49.4 °F 29.83 in Calm   2.0 mph 88 % 0.00 in 0 W/m2
04:13 52.9 °F 49.7 °F 29.83 in Calm   4.0 mph 89 % 0.00 in 0 W/m2
04:18 52.9 °F 49.7 °F 29.84 in Calm   4.0 mph 89 % 0.00 in 0 W/m2
04:23 52.9 °F 49.4 °F 29.84 in Calm   4.0 mph 88 % 0.00 in 0 W/m2
04:28 52.9 °F 49.7 °F 29.84 in ENE 2.0 mph 6.0 mph 89 % 0.00 in 0 W/m2
04:33 52.7 °F 49.5 °F 29.84 in ENE 2.0 mph 6.0 mph 89 % 0.00 in 0 W/m2
04:38 52.7 °F 49.5 °F 29.84 in Calm   3.0 mph 89 % 0.00 in 0 W/m2
04:43 52.5 °F 49.4 °F 29.84 in Calm   4.0 mph 89 % 0.00 in 0 W/m2
04:48 52.7 °F 49.5 °F 29.84 in Calm   4.0 mph 89 % 0.00 in 0 W/m2
04:53 52.5 °F 49.4 °F 29.84 in Calm   4.0 mph 89 % 0.00 in 0 W/m2
04:58 52.7 °F 49.5 °F 29.84 in Calm   5.0 mph 89 % 0.00 in 0 W/m2
05:03 52.7 °F 49.5 °F 29.84 in Calm   5.0 mph 89 % 0.00 in 0 W/m2
05:08 52.5 °F 49.4 °F 29.84 in Calm   1.0 mph 89 % 0.00 in 0 W/m2
05:13 52.5 °F 49.4 °F 29.84 in Calm   2.0 mph 89 % 0.00 in 0 W/m2
05:18 52.7 °F 49.5 °F 29.84 in South 1.0 mph 6.0 mph 89 % 0.00 in 0 W/m2
05:23 52.9 °F 49.7 °F 29.84 in South 1.0 mph 6.0 mph 89 % 0.00 in 5 W/m2
05:28 53.1 °F 49.6 °F 29.84 in Calm   2.0 mph 88 % 0.00 in 5 W/m2
05:33 52.9 °F 49.4 °F 29.84 in Calm     88 % 0.00 in 7 W/m2
05:38 52.9 °F 49.7 °F 29.84 in SSW 1.0 mph 4.0 mph 89 % 0.00 in 9 W/m2
05:43 53.1 °F 49.9 °F 29.84 in SSW 1.0 mph 4.0 mph 89 % 0.00 in 11 W/m2
05:48 53.2 °F 50.1 °F 29.84 in SSW 1.0 mph 5.0 mph 89 % 0.00 in 12 W/m2
05:49 53.2 °F 50.4 °F 29.84 in SSW 1.0 mph 5.0 mph 90 % 0.00 in 12 W/m2
05:54 53.2 °F 50.1 °F 29.84 in SSW 1.0 mph 5.0 mph 89 % 0.00 in 16 W/m2
05:59 53.2 °F 50.1 °F 29.84 in Calm   2.0 mph 89 % 0.00 in 21 W/m2
06:05 53.2 °F 50.1 °F 29.84 in Calm   1.0 mph 89 % 0.00 in 37 W/m2
06:10 53.2 °F 50.1 °F 29.84 in Calm   4.0 mph 89 % 0.00 in 47 W/m2
06:15 53.4 °F 50.6 °F 29.84 in SSW 1.0 mph 4.0 mph 90 % 0.00 in 47 W/m2
06:20 53.6 °F 50.7 °F 29.84 in SSW 1.0 mph 5.0 mph 90 % 0.00 in 47 W/m2
06:25 53.8 °F 50.9 °F 29.84 in SSW 2.0 mph 5.0 mph 90 % 0.00 in 100 W/m2
06:30 54.1 °F 51.3 °F 29.83 in SSW 1.0 mph 6.0 mph 90 % 0.00 in 76 W/m2
06:35 54.7 °F 51.8 °F 29.83 in South 2.0 mph 6.0 mph 90 % 0.00 in 84 W/m2
06:40 55.2 °F 52.0 °F 29.83 in SSW 4.0 mph 11.0 mph 89 % 0.00 in 158 W/m2
06:45 55.8 °F 51.9 °F 29.83 in SW 6.0 mph 11.0 mph 87 % 0.00 in 142 W/m2
06:50 56.5 °F 52.3 °F 29.83 in SW 7.0 mph 14.0 mph 86 % 0.00 in 116 W/m2
06:55 57.0 °F 52.6 °F 29.84 in SW 8.0 mph 18.0 mph 85 % 0.00 in 100 W/m2
07:00 57.4 °F 52.3 °F 29.84 in SW 9.0 mph 20.0 mph 83 % 0.00 in 90 W/m2
07:05 57.7 °F 52.6 °F 29.84 in SW 9.0 mph 20.0 mph 83 % 0.00 in 102 W/m2
07:10 57.7 °F 52.3 °F 29.84 in SW 8.0 mph 13.0 mph 82 % 0.00 in 111 W/m2
07:15 57.9 °F 52.1 °F 29.84 in SW 9.0 mph 15.0 mph 81 % 0.00 in 125 W/m2
07:20 58.1 °F 52.3 °F 29.84 in SW 10.0 mph 15.0 mph 81 % 0.00 in 299 W/m2
07:25 58.5 °F 52.6 °F 29.84 in SW 9.0 mph 16.0 mph 81 % 0.00 in 174 W/m2
07:30 58.6 °F 52.5 °F 29.85 in SW 9.0 mph 16.0 mph 80 % 0.00 in 304 W/m2
07:35 58.8 °F 52.7 °F 29.85 in SW 10.0 mph 16.0 mph 80 % 0.00 in 332 W/m2
07:40 59.0 °F 52.5 °F 29.85 in SW 10.0 mph 19.0 mph 79 % 0.00 in 156 W/m2
07:45 59.2 °F 52.7 °F 29.85 in SW 10.0 mph 19.0 mph 79 % 0.00 in 362 W/m2
07:50 59.4 °F 52.5 °F 29.85 in SW 10.0 mph 16.0 mph 78 % 0.00 in 366 W/m2
07:55 60.1 °F 53.2 °F 29.85 in SW 9.0 mph 16.0 mph 78 % 0.00 in 459 W/m2
08:00 60.4 °F 52.8 °F 29.85 in SW 10.0 mph 19.0 mph 76 % 0.00 in 366 W/m2
08:05 60.4 °F 52.1 °F 29.86 in SW 11.0 mph 19.0 mph 74 % 0.00 in 257 W/m2
08:06 60.4 °F 52.1 °F 29.85 in SW 11.0 mph 19.0 mph 74 % 0.00 in 241 W/m2
08:11 60.6 °F 52.3 °F 29.86 in SW 11.0 mph 18.0 mph 74 % 0.00 in 186 W/m2
08:16 60.4 °F 52.1 °F 29.86 in SW 9.0 mph 16.0 mph 74 % 0.00 in 139 W/m2
08:21 60.4 °F 52.1 °F 29.86 in SW 8.0 mph 13.0 mph 74 % 0.00 in 149 W/m2
08:26 60.4 °F 52.1 °F 29.86 in WSW 7.0 mph 14.0 mph 74 % 0.00 in 148 W/m2
08:31 60.4 °F 52.1 °F 29.86 in SW 7.0 mph 14.0 mph 74 % 0.00 in 162 W/m2
08:36 60.4 °F 52.5 °F 29.86 in SW 5.0 mph 10.0 mph 75 % 0.00 in 158 W/m2
08:41 60.4 °F 52.8 °F 29.86 in SSW 5.0 mph 11.0 mph 76 % 0.00 in 176 W/m2
08:46 60.4 °F 52.8 °F 29.86 in SSW 6.0 mph 11.0 mph 76 % 0.00 in 193 W/m2
08:51 60.4 °F 52.8 °F 29.86 in SSW 6.0 mph 12.0 mph 76 % 0.00 in 192 W/m2
08:56 60.6 °F 53.0 °F 29.86 in SSW 7.0 mph 12.0 mph 76 % 0.00 in 209 W/m2
09:01 60.6 °F 53.4 °F 29.86 in SSW 7.0 mph 11.0 mph 77 % 0.00 in 241 W/m2
09:06 60.6 °F 53.0 °F 29.86 in SW 8.0 mph 13.0 mph 76 % 0.00 in 250 W/m2
09:12 60.8 °F 53.2 °F 29.86 in SSW 9.0 mph 13.0 mph 76 % 0.00 in 287 W/m2
09:17 61.0 °F 53.0 °F 29.86 in SSW 10.0 mph 15.0 mph 75 % 0.00 in 214 W/m2
09:22 61.2 °F 53.2 °F 29.86 in SW 9.0 mph 15.0 mph 75 % 0.00 in 274 W/m2
09:27 61.2 °F 53.5 °F 29.86 in SSW 8.0 mph 14.0 mph 76 % 0.00 in 216 W/m2
09:32 61.3 °F 53.3 °F 29.86 in SSW 9.0 mph 15.0 mph 75 % 0.00 in 272 W/m2
09:37 61.5 °F 53.5 °F 29.86 in SW 9.0 mph 15.0 mph 75 % 0.00 in 408 W/m2
09:42 62.1 °F 54.4 °F 29.86 in SW 9.0 mph 23.0 mph 76 % 0.00 in 424 W/m2
09:47 62.2 °F 53.5 °F 29.86 in SW 10.0 mph 23.0 mph 73 % 0.00 in 396 W/m2
09:52 62.2 °F 53.8 °F 29.86 in SW 11.0 mph 21.0 mph 74 % 0.00 in 413 W/m2
09:57 62.4 °F 53.6 °F 29.86 in SW 11.0 mph 23.0 mph 73 % 0.00 in 330 W/m2
10:02 62.4 °F 53.6 °F 29.86 in SW 11.0 mph 23.0 mph 73 % 0.00 in 297 W/m2
10:07 62.6 °F 54.2 °F 29.86 in SW 9.0 mph 18.0 mph 74 % 0.00 in 299 W/m2
10:12 62.6 °F 53.8 °F 29.86 in SW 8.0 mph 14.0 mph 73 % 0.00 in 288 W/m2
10:17 62.6 °F 53.8 °F 29.86 in SW 10.0 mph 15.0 mph 73 % 0.00 in 306 W/m2
10:22 62.8 °F 53.6 °F 29.86 in SW 11.0 mph 18.0 mph 72 % 0.00 in 455 W/m2
10:27 63.1 °F 54.0 °F 29.86 in SW 12.0 mph 21.0 mph 72 % 0.00 in 445 W/m2
10:32 63.7 °F 54.1 °F 29.86 in SW 11.0 mph 21.0 mph 71 % 0.00 in 824 W/m2
10:37 64.4 °F 54.8 °F 29.87 in SW 11.0 mph 21.0 mph 71 % 0.00 in 424 W/m2
10:42 64.6 °F 54.2 °F 29.86 in SW 12.0 mph 22.0 mph 69 % 0.00 in 411 W/m2
10:47 64.2 °F 53.8 °F 29.86 in SW 13.0 mph 24.0 mph 69 % 0.00 in 439 W/m2
10:52 64.6 °F 54.2 °F 29.86 in SW 13.0 mph 24.0 mph 69 % 0.00 in 1069 W/m2
10:57 64.9 °F 54.9 °F 29.86 in SW 12.0 mph 23.0 mph 70 % 0.00 in 424 W/m2
11:02 64.8 °F 53.9 °F 29.86 in SW 12.0 mph 23.0 mph 68 % 0.00 in 480 W/m2
11:07 64.8 °F 54.7 °F 29.86 in SW 11.0 mph 19.0 mph 70 % 0.00 in 577 W/m2
11:12 64.9 °F 54.5 °F 29.86 in SW 11.0 mph 24.0 mph 69 % 0.00 in 635 W/m2
11:17 64.8 °F 54.3 °F 29.86 in SW 11.0 mph 24.0 mph 69 % 0.00 in 316 W/m2
11:22 64.8 °F 53.9 °F 29.86 in SW 11.0 mph 19.0 mph 68 % 0.00 in 353 W/m2
11:27 64.9 °F 54.5 °F 29.86 in SW 12.0 mph 19.0 mph 69 % 0.00 in 1125 W/m2
11:29 65.1 °F 54.7 °F 29.86 in SW 12.0 mph 19.0 mph 69 % 0.00 in 1114 W/m2
11:34 65.5 °F 54.2 °F 29.86 in WSW 12.0 mph 19.0 mph 67 % 0.00 in 417 W/m2
11:39 65.5 °F 54.2 °F 29.86 in WSW 11.0 mph 19.0 mph 67 % 0.00 in 193 W/m2
11:44 64.8 °F 55.9 °F 29.87 in SW 11.0 mph 21.0 mph 73 % 0.00 in 309 W/m2
11:49 63.3 °F 56.7 °F 29.87 in SW 11.0 mph 21.0 mph 79 % 0.01 in 387 W/m2
11:54 62.8 °F 56.5 °F 29.86 in SW 9.0 mph 18.0 mph 80 % 0.01 in 248 W/m2
11:59 62.2 °F 56.0 °F 29.86 in SSW 8.0 mph 12.0 mph 80 % 0.01 in 339 W/m2
12:04 62.2 °F 56.0 °F 29.86 in SSW 8.0 mph 13.0 mph 80 % 0.01 in 381 W/m2
12:09 62.4 °F 56.5 °F 29.86 in SSW 8.0 mph 13.0 mph 81 % 0.01 in 355 W/m2
12:14 62.8 °F 55.8 °F 29.86 in SSW 8.0 mph 14.0 mph 78 % 0.01 in 323 W/m2
12:19 62.8 °F 56.2 °F 29.86 in SSW 9.0 mph 14.0 mph 79 % 0.01 in 399 W/m2
12:24 62.8 °F 55.1 °F 29.86 in SW 9.0 mph 15.0 mph 76 % 0.01 in 373 W/m2
12:29 62.8 °F 54.7 °F 29.86 in SW 9.0 mph 15.0 mph 75 % 0.01 in 406 W/m2
12:34 63.1 °F 54.7 °F 29.86 in SW 9.0 mph 14.0 mph 74 % 0.01 in 251 W/m2
12:39 63.1 °F 54.7 °F 29.86 in SW 9.0 mph 15.0 mph 74 % 0.01 in 225 W/m2
12:44 63.0 °F 54.2 °F 29.86 in SW 10.0 mph 19.0 mph 73 % 0.01 in 146 W/m2
12:49 62.8 °F 55.1 °F 29.86 in SW 11.0 mph 19.0 mph 76 % 0.00 in 104 W/m2
12:54 61.9 °F 55.3 °F 29.86 in SW 11.0 mph 18.0 mph 79 % 0.00 in 213 W/m2
12:59 60.6 °F 54.8 °F 29.86 in SW 10.0 mph 18.0 mph 81 % 0.00 in 339 W/m2
13:04 60.3 °F 55.1 °F 29.86 in SW 8.0 mph 13.0 mph 83 % 0.00 in 255 W/m2
13:09 60.1 °F 55.2 °F 29.86 in SSW 6.0 mph 12.0 mph 84 % 0.00 in 239 W/m2
13:14 59.7 °F 54.5 °F 29.86 in SW 6.0 mph 11.0 mph 83 % 0.00 in 223 W/m2
13:19 59.5 °F 54.0 °F 29.86 in SW 6.0 mph 11.0 mph 82 % 0.00 in 183 W/m2
13:24 59.7 °F 54.5 °F 29.86 in SW 4.0 mph 8.0 mph 83 % 0.00 in 113 W/m2
13:29 59.5 °F 54.4 °F 29.86 in SW 3.0 mph 7.0 mph 83 % 0.01 in 90 W/m2
13:34 59.5 °F 54.7 °F 29.86 in South 4.0 mph 9.0 mph 84 % 0.01 in 81 W/m2
13:39 59.4 °F 54.5 °F 29.86 in South 4.0 mph 9.0 mph 84 % 0.01 in 98 W/m2
13:44 59.4 °F 54.8 °F 29.86 in South 3.0 mph 8.0 mph 85 % 0.01 in 206 W/m2
13:49 59.4 °F 55.5 °F 29.86 in SSE 2.0 mph 6.0 mph 87 % 0.01 in 316 W/m2
13:54 59.7 °F 56.2 °F 29.86 in South 2.0 mph 6.0 mph 88 % 0.01 in 874 W/m2
13:59 60.4 °F 56.9 °F 29.85 in SSW 1.0 mph 7.0 mph 88 % 0.01 in 858 W/m2
14:04 61.5 °F 58.2 °F 29.86 in WSW 3.0 mph 8.0 mph 89 % 0.01 in 886 W/m2
14:09 62.2 °F 58.3 °F 29.86 in WSW 5.0 mph 10.0 mph 87 % 0.01 in 916 W/m2
14:14 63.1 °F 58.6 °F 29.86 in WSW 5.0 mph 10.0 mph 85 % 0.01 in 1079 W/m2
14:19 64.2 °F 59.6 °F 29.86 in SW 6.0 mph 13.0 mph 85 % 0.01 in 1194 W/m2
14:24 65.5 °F 58.1 °F 29.86 in SW 9.0 mph 18.0 mph 77 % 0.01 in 1194 W/m2
14:29 65.7 °F 56.8 °F 29.86 in SW 10.0 mph 18.0 mph 73 % 0.00 in 237 W/m2
14:34 65.5 °F 56.6 °F 29.86 in SW 10.0 mph 15.0 mph 73 % 0.00 in 118 W/m2
14:40 64.9 °F 56.5 °F 29.86 in SW 9.0 mph 15.0 mph 74 % 0.00 in 79 W/m2
14:44 64.4 °F 56.3 °F 29.86 in SSW 8.0 mph 16.0 mph 75 % 0.00 in 90 W/m2
14:49 63.9 °F 56.1 °F 29.86 in SSW 8.0 mph 16.0 mph 76 % 0.00 in 98 W/m2
14:54 63.7 °F 56.3 °F 29.86 in SSW 8.0 mph 14.0 mph 77 % 0.00 in 102 W/m2
15:00 63.3 °F 57.4 °F 29.86 in SSW 8.0 mph 14.0 mph 81 % 0.01 in 72 W/m2
15:05 62.8 °F 56.5 °F 29.86 in SSW 8.0 mph 16.0 mph 80 % 0.01 in 72 W/m2
15:10 62.2 °F 56.7 °F 29.86 in SSW 9.0 mph 16.0 mph 82 % 0.01 in 79 W/m2
15:15 61.7 °F 56.5 °F 29.86 in SSW 8.0 mph 16.0 mph 83 % 0.01 in 76 W/m2
15:20 61.3 °F 56.5 °F 29.86 in SSW 9.0 mph 16.0 mph 84 % 0.01 in 86 W/m2
15:25 60.8 °F 56.3 °F 29.86 in SSW 8.0 mph 14.0 mph 85 % 0.02 in 134 W/m2
15:30 60.4 °F 55.9 °F 29.85 in SW 8.0 mph 14.0 mph 85 % 0.02 in 223 W/m2
15:35 60.1 °F 55.9 °F 29.85 in SW 7.0 mph 14.0 mph 86 % 0.02 in 301 W/m2
15:40 60.1 °F 55.9 °F 29.85 in SW 8.0 mph 14.0 mph 86 % 0.02 in 236 W/m2
15:45 60.3 °F 56.1 °F 29.85 in WSW 7.0 mph 13.0 mph 86 % 0.02 in 287 W/m2
15:50 60.8 °F 57.5 °F 29.85 in WSW 6.0 mph 10.0 mph 89 % 0.02 in 956 W/m2
15:55 62.1 °F 58.5 °F 29.85 in SW 7.0 mph 15.0 mph 88 % 0.02 in 898 W/m2
16:00 62.4 °F 57.5 °F 29.86 in SW 9.0 mph 20.0 mph 84 % 0.01 in 315 W/m2
16:05 62.6 °F 57.0 °F 29.85 in SW 10.0 mph 20.0 mph 82 % 0.01 in 327 W/m2
16:10 62.8 °F 57.2 °F 29.85 in WSW 9.0 mph 16.0 mph 82 % 0.01 in 867 W/m2
16:15 63.3 °F 57.4 °F 29.86 in WSW 9.0 mph 16.0 mph 81 % 0.01 in 705 W/m2
16:20 63.9 °F 56.1 °F 29.86 in WSW 9.0 mph 19.0 mph 76 % 0.01 in 568 W/m2
16:25 64.0 °F 56.0 °F 29.86 in WSW 9.0 mph 19.0 mph 75 % 0.00 in 281 W/m2
16:30 64.2 °F 56.1 °F 29.86 in WSW 9.0 mph 15.0 mph 75 % 0.00 in 701 W/m2
16:35 64.9 °F 56.1 °F 29.86 in WSW 10.0 mph 18.0 mph 73 % 0.00 in 733 W/m2
16:36 64.9 °F 55.7 °F 29.86 in WSW 9.0 mph 18.0 mph 72 % 0.00 in 733 W/m2
16:41 64.9 °F 54.9 °F 29.86 in WSW 10.0 mph 18.0 mph 70 % 0.00 in 213 W/m2
16:46 64.6 °F 54.6 °F 29.86 in WSW 9.0 mph 15.0 mph 70 % 0.00 in 318 W/m2
16:51 64.4 °F 54.4 °F 29.86 in SW 9.0 mph 14.0 mph 70 % 0.00 in 220 W/m2
16:56 64.2 °F 54.2 °F 29.86 in SW 9.0 mph 20.0 mph 70 % 0.00 in 190 W/m2
17:01 64.0 °F 53.7 °F 29.86 in WSW 10.0 mph 20.0 mph 69 % 0.00 in 225 W/m2
17:06 64.0 °F 54.1 °F 29.86 in WSW 9.0 mph 16.0 mph 70 % 0.00 in 207 W/m2
17:11 64.0 °F 54.1 °F 29.86 in WSW 8.0 mph 15.0 mph 70 % 0.00 in 162 W/m2
17:16 63.9 °F 54.7 °F 29.86 in WSW 8.0 mph 15.0 mph 72 % 0.00 in 144 W/m2
17:21 63.9 °F 54.7 °F 29.86 in WSW 8.0 mph 13.0 mph 72 % 0.00 in 141 W/m2
17:26 63.9 °F 55.8 °F 29.86 in WSW 8.0 mph 16.0 mph 75 % 0.01 in 272 W/m2
17:31 63.1 °F 55.4 °F 29.86 in WSW 10.0 mph 19.0 mph 76 % 0.01 in 287 W/m2
17:36 62.6 °F 56.0 °F 29.86 in SW 11.0 mph 19.0 mph 79 % 0.01 in 338 W/m2
17:41 62.4 °F 56.5 °F 29.85 in SW 8.0 mph 13.0 mph 81 % 0.01 in 510 W/m2
17:46 62.4 °F 56.2 °F 29.85 in SW 8.0 mph 13.0 mph 80 % 0.01 in 176 W/m2
17:51 62.4 °F 55.8 °F 29.85 in SW 9.0 mph 14.0 mph 79 % 0.01 in 199 W/m2
17:56 62.4 °F 55.5 °F 29.86 in SW 8.0 mph 14.0 mph 78 % 0.01 in 109 W/m2
18:01 62.2 °F 54.9 °F 29.86 in SW 7.0 mph 12.0 mph 77 % 0.01 in 167 W/m2
18:06 62.4 °F 55.1 °F 29.86 in SW 9.0 mph 16.0 mph 77 % 0.01 in 459 W/m2
18:11 62.6 °F 55.3 °F 29.86 in SW 10.0 mph 19.0 mph 77 % 0.01 in 178 W/m2
18:16 62.4 °F 54.4 °F 29.86 in SW 12.0 mph 20.0 mph 75 % 0.01 in 473 W/m2
18:21 62.4 °F 54.4 °F 29.86 in SW 11.0 mph 20.0 mph 75 % 0.01 in 459 W/m2
18:26 62.4 °F 54.0 °F 29.86 in SW 11.0 mph 20.0 mph 74 % 0.00 in 357 W/m2
18:31 62.6 °F 54.6 °F 29.86 in SW 11.0 mph 19.0 mph 75 % 0.00 in 308 W/m2
18:36 63.0 °F 54.5 °F 29.87 in WSW 10.0 mph 16.0 mph 74 % 0.00 in 292 W/m2
18:41 63.1 °F 55.1 °F 29.86 in SW 8.0 mph 14.0 mph 75 % 0.00 in 301 W/m2
18:46 63.1 °F 55.1 °F 29.86 in SW 8.0 mph 13.0 mph 75 % 0.00 in 318 W/m2
18:51 63.1 °F 55.1 °F 29.86 in SW 9.0 mph 18.0 mph 75 % 0.00 in 313 W/m2
18:57 63.3 °F 55.3 °F 29.86 in SW 10.0 mph 18.0 mph 75 % 0.00 in 297 W/m2
19:02 63.7 °F 55.6 °F 29.86 in SW 10.0 mph 16.0 mph 75 % 0.00 in 285 W/m2
19:07 63.5 °F 55.4 °F 29.86 in SW 10.0 mph 16.0 mph 75 % 0.00 in 237 W/m2
19:12 63.3 °F 55.6 °F 29.86 in SW 10.0 mph 15.0 mph 76 % 0.00 in 199 W/m2
19:17 63.3 °F 55.6 °F 29.86 in SW 9.0 mph 14.0 mph 76 % 0.00 in 102 W/m2
19:22 63.1 °F 55.8 °F 29.86 in SW 9.0 mph 14.0 mph 77 % 0.00 in 214 W/m2
19:27 63.1 °F 55.8 °F 29.87 in SW 7.0 mph 11.0 mph 77 % 0.00 in 202 W/m2
19:32 63.1 °F 55.8 °F 29.87 in SW 6.0 mph 11.0 mph 77 % 0.00 in 127 W/m2
19:37 63.0 °F 55.6 °F 29.87 in SW 6.0 mph 12.0 mph 77 % 0.00 in 84 W/m2
19:42 63.1 °F 55.8 °F 29.87 in SW 6.0 mph 12.0 mph 77 % 0.00 in 167 W/m2
19:47 63.3 °F 56.3 °F 29.87 in SW 7.0 mph 12.0 mph 78 % 0.00 in 148 W/m2
19:52 63.3 °F 56.3 °F 29.87 in SW 7.0 mph 12.0 mph 78 % 0.00 in 113 W/m2
19:57 63.1 °F 55.8 °F 29.87 in SW 6.0 mph 10.0 mph 77 % 0.00 in 77 W/m2
20:02 63.1 °F 55.8 °F 29.87 in SW 6.0 mph 9.0 mph 77 % 0.00 in 98 W/m2
20:07 63.0 °F 55.6 °F 29.88 in SW 6.0 mph 9.0 mph 77 % 0.00 in 51 W/m2
20:12 62.8 °F 55.5 °F 29.88 in SW 5.0 mph 9.0 mph 77 % 0.00 in 44 W/m2
20:17 62.6 °F 55.3 °F 29.88 in SW 5.0 mph 8.0 mph 77 % 0.00 in 44 W/m2
20:22 62.4 °F 55.5 °F 29.88 in SW 5.0 mph 8.0 mph 78 % 0.00 in 39 W/m2
20:27 62.2 °F 55.3 °F 29.88 in SW 4.0 mph 8.0 mph 78 % 0.00 in 32 W/m2
20:32 62.1 °F 55.1 °F 29.88 in WSW 5.0 mph 9.0 mph 78 % 0.00 in 26 W/m2
20:37 61.9 °F 55.3 °F 29.88 in WSW 5.0 mph 9.0 mph 79 % 0.00 in 23 W/m2
20:42 61.7 °F 55.1 °F 29.89 in WSW 4.0 mph 8.0 mph 79 % 0.00 in 18 W/m2
20:48 61.3 °F 55.1 °F 29.89 in WSW 3.0 mph 6.0 mph 80 % 0.00 in 12 W/m2
20:53 61.2 °F 54.9 °F 29.89 in WSW 1.0 mph 5.0 mph 80 % 0.00 in 9 W/m2
20:58 61.0 °F 54.8 °F 29.89 in WSW 1.0 mph 4.0 mph 80 % 0.00 in 5 W/m2
21:03 60.6 °F 54.8 °F 29.89 in WSW 1.0 mph 4.0 mph 81 % 0.00 in 5 W/m2
21:07 60.6 °F 54.8 °F 29.89 in Calm   3.0 mph 81 % 0.00 in 5 W/m2
21:08 60.6 °F 54.8 °F 29.89 in Calm   3.0 mph 81 % 0.00 in 5 W/m2
21:12 60.4 °F 54.6 °F 29.89 in Calm   2.0 mph 81 % 0.00 in 0 W/m2
21:13 60.4 °F 54.6 °F 29.89 in Calm   2.0 mph 81 % 0.00 in 0 W/m2
21:18 60.3 °F 54.4 °F 29.89 in WSW 1.0 mph 5.0 mph 81 % 0.00 in 0 W/m2
21:23 60.1 °F 54.2 °F 29.89 in WSW 2.0 mph 5.0 mph 81 % 0.00 in 0 W/m2
21:28 59.9 °F 54.1 °F 29.89 in WSW 1.0 mph 5.0 mph 81 % 0.00 in 0 W/m2
21:33 59.7 °F 53.9 °F 29.89 in WSW 1.0 mph 4.0 mph 81 % 0.00 in 0 W/m2
21:38 59.5 °F 53.7 °F 29.89 in WSW 1.0 mph 4.0 mph 81 % 0.00 in 0 W/m2
21:43 59.5 °F 53.7 °F 29.89 in WSW 1.0 mph 4.0 mph 81 % 0.00 in 0 W/m2
21:48 59.2 °F 53.4 °F 29.89 in Calm   4.0 mph 81 % 0.00 in 0 W/m2
21:53 59.0 °F 53.5 °F 29.89 in Calm   2.0 mph 82 % 0.00 in 0 W/m2
21:58 58.6 °F 53.2 °F 29.89 in Calm   2.0 mph 82 % 0.00 in 0 W/m2
22:03 58.5 °F 53.0 °F 29.89 in Calm     82 % 0.00 in 0 W/m2
22:08 58.3 °F 52.8 °F 29.90 in Calm     82 % 0.00 in 0 W/m2
22:13 57.9 °F 52.8 °F 29.90 in Calm     83 % 0.00 in 0 W/m2
22:18 57.6 °F 52.8 °F 29.90 in Calm     84 % 0.00 in 0 W/m2
22:23 57.4 °F 52.6 °F 29.90 in Calm   4.0 mph 84 % 0.00 in 0 W/m2
22:28 57.0 °F 52.6 °F 29.90 in Calm   4.0 mph 85 % 0.00 in 0 W/m2
22:33 57.0 °F 52.6 °F 29.90 in Calm   2.0 mph 85 % 0.00 in 0 W/m2
22:38 56.8 °F 52.7 °F 29.90 in Calm     86 % 0.00 in 0 W/m2
22:43 56.8 °F 52.7 °F 29.90 in Calm     86 % 0.00 in 0 W/m2
22:48 56.8 °F 52.7 °F 29.90 in Calm     86 % 0.00 in 0 W/m2
22:53 56.8 °F 52.7 °F 29.90 in Calm   2.0 mph 86 % 0.00 in 0 W/m2
22:58 56.8 °F 53.0 °F 29.90 in Calm   3.0 mph 87 % 0.00 in 0 W/m2
23:03 56.7 °F 52.8 °F 29.90 in Calm   3.0 mph 87 % 0.00 in 0 W/m2
23:08 56.7 °F 52.8 °F 29.90 in WSW 1.0 mph 3.0 mph 87 % 0.00 in 0 W/m2
23:13 56.7 °F 52.8 °F 29.90 in WSW 1.0 mph 2.0 mph 87 % 0.00 in 0 W/m2
23:18 56.5 °F 52.7 °F 29.90 in WSW 1.0 mph 6.0 mph 87 % 0.00 in 0 W/m2
23:23 56.3 °F 52.5 °F 29.90 in WSW 2.0 mph 6.0 mph 87 % 0.00 in 0 W/m2
23:28 56.1 °F 52.3 °F 29.90 in WSW 2.0 mph 5.0 mph 87 % 0.00 in 0 W/m2
23:33 56.1 °F 52.3 °F 29.90 in WSW 1.0 mph 5.0 mph 87 % 0.00 in 0 W/m2
23:38 55.9 °F 52.1 °F 29.90 in Calm   3.0 mph 87 % 0.00 in 0 W/m2
23:44 55.8 °F 52.3 °F 29.90 in Calm   3.0 mph 88 % 0.00 in 0 W/m2
23:48 55.8 °F 52.3 °F 29.90 in Calm   2.0 mph 88 % 0.00 in 0 W/m2
23:54 55.8 °F 52.3 °F 29.90 in Calm   1.0 mph 88 % 0.00 in 0 W/m2
23:59 55.8 °F 52.6 °F 29.90 in Calm   2.0 mph 89 % 0.00 in 0 W/m2
Delerius-Weather
Compliments of Weather Underground - 2.25 mb

Data updates at regular intervals.